Voltar ao catálogo

COSMOS 249 DEB *

AtivoLEO
NORAD 6176·DEBRIS·🇷🇺 Russia

Lançado Oct 20, 1968 de Baikonur Cosmodrome

Loading…

Próximas Passagens (próximas 24 horas)

TLE

AtualizadoSource: Space-Track

Época: Sep 14, 2026, 08:26 UTC

1 06176U 68091CG  26257.35191359 -.00000003  00000-0  11387-3 0  9999
2 06176  65.7283  30.1855 0465083   1.8505 358.4109 13.08546497170858

Acompanhe COSMOS 249 DEB * em tempo real com AllMySat

Download on the App Store